Hourly Data Report for September 10, 2017

All times are specified in Local Standard Time (LST). Add 1 hour to adjust for Daylight Saving Time where and when it is observed.

OTTAWA INTL A
ONTARIO

45°19'00.000" N
75°40'00.000" W
114.90 m
6106001
71628
YOW

Download Data

Hourly Data (September 2017)
Hourly Data Report for September 10, 2017
Temp Definition
°C
Dew Point Temp Definition
°C
Rel Hum Definition
%
Wind Dir Definition
10's deg

Wind Spd Definition
km/h
Visibility Definition
km
Stn Press Definition
kPa
Hmdx Definition


Wind Chill Definition


Weather Definition


TIME
00:00 Legend Double Dagger 7.9 5.5 84 31 10 24.1 101.60     LegendNANA
01:00 Legend Double Dagger 8.0 5.4 84 32 11 24.1 101.62     Clear
02:00 Legend Double Dagger 6.9 5.7 92 32 11 24.1 101.62     LegendNANA
03:00 Legend Double Dagger 6.8 5.6 92 33 12 24.1 101.67     LegendNANA
04:00 Legend Double Dagger 7.8 6.8 94 30 9 24.1 101.68     Mainly Clear
05:00 Legend Double Dagger 7.0 6.2 95 36 2 24.1 101.72     LegendNANA
06:00 Legend Double Dagger 7.0 5.9 92 29 4 24.1 101.78     LegendNANA
07:00 Legend Double Dagger 8.8 7.3 90 29 7 24.1 101.80     Mainly Clear
08:00 Legend Double Dagger 11.4 8.6 83 31 12 24.1 101.85     LegendNANA
09:00 Legend Double Dagger 13.9 7.9 67 32 10 24.1 101.89     LegendNANA
10:00 Legend Double Dagger 15.9 7.0 55 32 10 24.1 101.86     Clear
11:00 Legend Double Dagger 17.9 5.9 45 36 15 24.1 101.83     LegendNANA
12:00 Legend Double Dagger 18.0 6.4 46 25 7 24.1 101.77     LegendNANA
13:00 Legend Double Dagger 19.3 6.5 43 32 7 24.1 101.71     Clear
14:00 Legend Double Dagger 19.7 7.2 44 28 17 24.1 101.66     LegendNANA
15:00 Legend Double Dagger 19.9 4.8 37 26 13 24.1 101.61     LegendNANA
16:00 Legend Double Dagger 19.9 5.5 38 30 16 24.1 101.55     Mainly Clear
17:00 Legend Double Dagger 19.6 7.3 44 29 14 24.1 101.53     LegendNANA
18:00 Legend Double Dagger 16.6 9.4 62 26 12 24.1 101.54     LegendNANA
19:00 Legend Double Dagger 14.2 8.4 68 27 10 24.1 101.54     Clear
20:00 Legend Double Dagger 12.6 8.4 76 25 10 24.1 101.55     LegendNANA
21:00 Legend Double Dagger 12.1 8.3 77 22 10 24.1 101.56     LegendNANA
22:00 Legend Double Dagger 10.8 7.6 81 26 7 24.1 101.57     Clear
23:00 Legend Double Dagger 10.0 7.9 87 25 7 24.1 101.54     LegendNANA

Notes on Data Quality.

Legend

  • E = Estimated
  • M = Missing
  • NA = Not Available
  • ‡ = Partner data that is not subject to review by the National Climate Archives
Date modified: